Погода в Стрельцах

Россия / Курганская область     54°58′03″N   67°43′40″E
темп.,
°C
ветер,
м/с
пор.,
м/с
влажн.,
%
обл.,
%
осадки,
мм/ч
давл.,
гПа
погр.,
м
13 апреля, вт
вт1323:00+2сз27100100 0.1 1037160
02:00+2ссв3499100 0.0 103885
05:00+1с2299100 0.0 104036
08:00+2ссз2210063 0.0 1041139
11:00+5сз12871 0.0 1042171
14:00+8з23701 0.0 1041480
17:00+8зюз34796 0.0 1040383
20:00+3юз35910 0.0 104076
14 апреля, ср
ср1423:00+2юз369316 0.0 104093
02:00+1юз48915 0.0 1038124
05:00+1юз4108652 0.0 1037168
08:00+4зюз51178100 0.0 1036278
11:00+8зюз696877 0.0 1034399
14:00+12зюз69605 0.0 1032644
17:00+13зюз586414 0.0 1031740
20:00+9зюз47795 0.0 1030108
15 апреля, чт
чт1523:00+8зюз47835 0.0 1029101
02:00+7зюз34875 0.0 102965
05:00+6зюз34875 0.0 102857
08:00+9зюз368014 0.0 1028163
11:00+14зюз45665 0.0 1026449
14:00+16зюз55585 0.0 1024789
17:00+16зюз45565 0.0 1022812
20:00+12юз35715 0.0 102166
16 апреля, пт
пт1623:00+10зюз367462 0.0 102083
02:00+8зюз347355 0.0 101960
05:00+7зюз347352 0.0 101855
08:00+9зюз356779 0.0 1016149
11:00+14зюз345098 0.0 1015468
14:00+16з344616 0.0 1014975
17:00+17зсз344244 0.0 10121486
20:00+12с2260100 0.0 101110
17 апреля, сб
сб1723:00+8всв4588100 0.0 1010111
02:00+6всв2497100 0.0 100880
05:00+6с3497100 0.0 1007106
08:00+5ссв4592100 0.0 1006491
11:000ссв6894100 0.4 1008430
14:000ссв7993100 2.2 1009698
17:00−1ссв71094100 4.8 1010754
20:00−3св71189100 1.1 1010800